Find Starlink 35998

NORAD ID: 68055 Int'l Des: 2026-041 Owner: SPXS Country: US Constellation: starlink operational
LEOCIRCULAR

Live-Position

3D-Globus wird geladen...

Über Starlink 35998

Beschreibung wird geladen...

Nächste Überflüge

Passes for default location (London). Set your location on the main map for personalized predictions.

Höhenverlauf

Loading altitude history...

Zweizeiliger Elementsatz

1 68055U 26041R 26106.91668981 -.02165078 00000-0 -59121-1 0 9990
2 68055 53.1602 232.6343 0001160 72.2006 31.1593 15.40161257 6067
Epoch: 16. Apr. 2026 • Age: 11 hours

Aktueller Status

Höhe 456.0 km
Geschwindigkeit 7.65 km/s
Subsatellitenpunkt 45.26°N, 21.64°E
Startdatum 2. März 2026
Alter 0.1 years
Typ internet

Technische Details

Klassifizierung Payload
Masse 575.00 kg
Trockenmasse 530.00 kg
Gesamtmasse 575.00 kg
Länge 0.30 m
Durchmesser 4.10 m
Spannweite 29.00 m
Form Box + pan
Hersteller SPXS
Bus-Typ Starlink V2MO
Phasenstatus In Orbit
Besitzer/Staat SPXS/US

Most Searched